| time (UTC) | temp F | wind direction | speed knots | gust knots | rain 1hr in | rain 24hr in | rain mn in | humidity % | barometer mb |
| 20260505171114 | 59 | 304 | 5.2 | 7.0 | 0.00 | 0.00 | 0.00 | 83 | 1009.6 |
| 20260505170608 | 59 | 307 | 6.1 | 7.8 | 0.00 | 0.00 | 0.00 | 82 | 1009.5 |
| 20260505165556 | 60 | 315 | 4.3 | 7.0 | 0.00 | 0.00 | 0.00 | 82 | 1009.7 |
| 20260505165050 | 60 | 300 | 4.3 | 6.1 | 0.00 | 0.00 | 0.00 | 81 | 1009.8 |
| 20260505164544 | 60 | 313 | 5.2 | 6.1 | 0.00 | 0.00 | 0.00 | 82 | 1009.8 |
| 20260505164038 | 59 | 300 | 5.2 | 6.1 | 0.00 | 0.00 | 0.00 | 82 | 1010.0 |
| 20260505163532 | 59 | 290 | 4.3 | 6.1 | 0.00 | 0.00 | 0.00 | 82 | 1010.1 |
| 20260505163026 | 59 | 300 | 4.3 | 6.1 | 0.00 | 0.00 | 0.00 | 82 | 1010.1 |
| 20260505162520 | 59 | 315 | 5.2 | 7.8 | 0.00 | 0.00 | 0.00 | 83 | 1010.1 |
| 20260505162014 | 59 | 309 | 5.2 | 7.8 | 0.00 | 0.00 | 0.00 | 83 | 1010.1 |
| 20260505161507 | 59 | 300 | 5.2 | 7.0 | 0.00 | 0.00 | 0.00 | 83 | 1010.1 |
| 20260505161002 | 58 | 306 | 5.2 | 7.0 | 0.00 | 0.00 | 0.00 | 84 | 1010.3 |
| 20260505160502 | 58 | 304 | 7.0 | 7.8 | 0.00 | 0.00 | 0.00 | 84 | 1010.3 |
| 20260505152955 | 59 | 310 | 2.6 | 3.5 | 0.00 | 0.00 | 0.00 | 83 | 1011.1 |
| 20260505152939 | 59 | 298 | 2.6 | 4.3 | 0.00 | 0.00 | 0.00 | 83 | 1011.2 |
| 20260505151955 | 60 | 342 | 3.5 | 5.2 | 0.00 | 0.00 | 0.00 | 82 | 1011.1 |
| 20260505151457 | 60 | 338 | 2.6 | 5.2 | 0.00 | 0.00 | 0.00 | 83 | 1011.2 |
| 20260505150957 | 59 | 334 | 2.6 | 5.2 | 0.00 | 0.00 | 0.00 | 85 | 1011.2 |
| 20260505150455 | 58 | 318 | 2.6 | 3.5 | 0.00 | 0.00 | 0.00 | 84 | 1011.2 |
| 20260505140449 | 57 | 304 | 2.6 | 3.5 | 0.00 | 0.00 | 0.00 | 86 | 1010.9 |
| 20260505140215 | 57 | 314 | 1.7 | 3.5 | 0.00 | 0.00 | 0.00 | 87 | 1010.9 |
| 20260505124949 | 55 | 35 | 0.9 | 2.6 | 0.00 | 0.00 | 0.00 | 88 | 1010.8 |
| 20260505124538 | 55 | 53 | 0.0 | 0.0 | 0.00 | 0.00 | 0.00 | 87 | 1010.8 |
| 20260505123450 | 56 | 53 | 0.0 | 0.0 | 0.00 | 0.00 | 0.00 | 86 | 1010.9 |
| 20260505122946 | 56 | 53 | 0.0 | 0.9 | 0.00 | 0.00 | 0.00 | 86 | 1010.9 |
| 20260505122447 | 56 | 53 | 0.0 | 0.9 | 0.00 | 0.00 | 0.00 | 86 | 1010.9 |
| 20260505121948 | 56 | 53 | 0.0 | 1.7 | 0.00 | 0.00 | 0.00 | 86 | 1010.9 |
| 20260505121445 | 56 | 53 | 0.9 | 1.7 | 0.00 | 0.00 | 0.00 | 87 | 1011.0 |
| 20260505120945 | 56 | 53 | 0.9 | 1.7 | 0.00 | 0.00 | 0.00 | 89 | 1011.0 |
| 20260505120915 | 55 | 53 | 0.9 | 0.9 | 0.00 | 0.00 | 0.00 | 89 | 1011.0 |
| 20260505115931 | 55 | 53 | 0.9 | 0.9 | 0.00 | 0.00 | 0.00 | 90 | 1011.0 |
| 20260505115429 | 55 | 53 | 0.9 | 1.7 | 0.00 | 0.00 | 0.00 | 91 | 1011.0 |
| 20260505115148 | 54 | 53 | 0.9 | 1.7 | 0.00 | 0.00 | 0.00 | 91 | 1011.1 |
| 20260505114908 | 54 | 53 | 0.9 | 1.7 | 0.00 | 0.00 | 0.00 | 91 | 1011.1 |
| 20260505113925 | 54 | 53 | 1.7 | 2.6 | 0.00 | 0.00 | 0.00 | 91 | 1011.2 |
| 20260505113426 | 54 | 53 | 1.7 | 3.5 | 0.00 | 0.00 | 0.00 | 91 | 1011.2 |
| 20260505112922 | 54 | 44 | 1.7 | 3.5 | 0.00 | 0.00 | 0.00 | 91 | 1011.1 |
| 20260505112421 | 54 | 36 | 1.7 | 3.5 | 0.00 | 0.00 | 0.00 | 91 | 1011.1 |
| 20260505111918 | 54 | 58 | 0.9 | 1.7 | 0.00 | 0.00 | 0.00 | 91 | 1011.0 |
| 20260505111418 | 54 | 301 | 1.7 | 2.6 | 0.00 | 0.00 | 0.00 | 90 | 1010.9 |
| 20260505111139 | 54 | 302 | 1.7 | 3.5 | 0.00 | 0.00 | 0.00 | 90 | 1010.7 |
| 20260505110415 | 54 | 52 | 2.6 | 3.5 | 0.00 | 0.00 | 0.00 | 89 | 1010.7 |
| 20260505101901 | 53 | 59 | 0.0 | 1.7 | 0.00 | 0.00 | 0.00 | 91 | 1010.1 |
| 20260505101355 | 53 | 59 | 0.0 | 0.9 | 0.00 | 0.00 | 0.00 | 91 | 1010.2 |
| 20260505100850 | 53 | 59 | 0.0 | 1.7 | 0.00 | 0.00 | 0.00 | 92 | 1010.2 |
| 20260505100344 | 53 | 57 | 0.9 | 1.7 | 0.00 | 0.00 | 0.00 | 92 | 1010.0 |
| 20260505100318 | 53 | 57 | 0.9 | 1.7 | 0.00 | 0.00 | 0.00 | 92 | 1010.0 |
| 20260505095331 | 53 | 57 | 0.9 | 1.7 | 0.00 | 0.00 | 0.00 | 92 | 1009.9 |
| 20260505094824 | 53 | 57 | 1.7 | 1.7 | 0.00 | 0.00 | 0.00 | 92 | 1010.0 |
| 20260505094319 | 53 | 333 | 1.7 | 2.6 | 0.00 | 0.00 | 0.00 | 92 | 1009.9 |
| 20260505094257 | 53 | 308 | 1.7 | 2.6 | 0.00 | 0.00 | 0.00 | 92 | 1009.9 |
| 20260505093307 | 53 | 293 | 2.6 | 2.6 | 0.00 | 0.00 | 0.00 | 92 | 1009.9 |
| 20260505092800 | 53 | 303 | 2.6 | 2.6 | 0.00 | 0.00 | 0.00 | 91 | 1009.9 |
| 20260505092255 | 53 | 322 | 1.7 | 2.6 | 0.00 | 0.00 | 0.00 | 91 | 1010.1 |
| 20260505091751 | 53 | 74 | 0.9 | 2.6 | 0.00 | 0.00 | 0.00 | 91 | 1010.1 |
| 20260505091243 | 53 | 76 | 0.9 | 2.6 | 0.00 | 0.00 | 0.00 | 91 | 1010.0 |
| 20260505090737 | 53 | 76 | 1.7 | 3.5 | 0.00 | 0.00 | 0.00 | 91 | 1009.9 |
| 20260505090231 | 53 | 321 | 1.7 | 3.5 | 0.00 | 0.00 | 0.00 | 91 | 1009.9 |
| 20260505085725 | 53 | 61 | 1.7 | 2.6 | 0.00 | 0.00 | 0.00 | 91 | 1010.0 |
| 20260505085219 | 53 | 61 | 1.7 | 3.5 | 0.00 | 0.00 | 0.00 | 91 | 1010.0 |
| 20260505084713 | 53 | 61 | 1.7 | 3.5 | 0.00 | 0.00 | 0.00 | 92 | 1010.0 |
| 20260505084207 | 53 | 61 | 1.7 | 2.6 | 0.00 | 0.00 | 0.00 | 92 | 1010.1 |
| 20260505083701 | 53 | 61 | 1.7 | 2.6 | 0.00 | 0.00 | 0.00 | 92 | 1010.1 |
| 20260505083155 | 53 | 78 | 1.7 | 2.6 | 0.00 | 0.00 | 0.00 | 92 | 1010.1 |
| 20260505082648 | 53 | 56 | 1.7 | 3.5 | 0.00 | 0.00 | 0.00 | 92 | 1010.2 |
| 20260505082150 | 53 | 341 | 1.7 | 3.5 | 0.00 | 0.00 | 0.00 | 92 | 1010.1 |
| 20260505081911 | 53 | 317 | 2.6 | 3.5 | 0.00 | 0.00 | 0.00 | 93 | 1010.1 |
| 20260505081149 | 52 | 309 | 1.7 | 3.5 | 0.00 | 0.00 | 0.00 | 93 | 1010.0 |
| 20260505080648 | 52 | 314 | 0.0 | 3.5 | 0.00 | 0.00 | 0.00 | 93 | 1010.1 |
| 20260505080149 | 51 | 130 | 0.0 | 0.9 | 0.00 | 0.00 | 0.00 | 92 | 1010.0 |
| 20260505075649 | 51 | 130 | 0.0 | 0.9 | 0.00 | 0.00 | 0.00 | 92 | 1009.9 |
| 20260505075416 | 51 | 130 | 0.0 | 0.9 | 0.00 | 0.00 | 0.00 | 91 | 1010.0 |
| 20260505075134 | 52 | 128 | 0.0 | 0.0 | 0.00 | 0.00 | 0.00 | 91 | 1010.0 |
| 20260505074147 | 52 | 38 | 0.0 | 0.0 | 0.00 | 0.00 | 0.00 | 91 | 1010.0 |
| 20260505073645 | 52 | 124 | 0.0 | 0.9 | 0.00 | 0.00 | 0.00 | 90 | 1010.1 |
| 20260505073409 | 52 | 124 | 0.0 | 0.9 | 0.00 | 0.00 | 0.00 | 90 | 1010.0 |
| 20260505072643 | 52 | 123 | 0.9 | 1.7 | 0.00 | 0.00 | 0.00 | 89 | 1010.0 |
| 20260505072143 | 53 | 59 | 1.7 | 2.6 | 0.00 | 0.00 | 0.00 | 90 | 1010.0 |
| 20260505071642 | 53 | 59 | 1.7 | 2.6 | 0.00 | 0.00 | 0.00 | 89 | 1010.0 |
| 20260505071139 | 53 | 59 | 1.7 | 2.6 | 0.00 | 0.00 | 0.00 | 89 | 1010.1 |
| 20260505070913 | 53 | 59 | 1.7 | 2.6 | 0.00 | 0.00 | 0.00 | 89 | 1010.0 |
| 20260505070400 | 53 | 59 | 1.7 | 2.6 | 0.00 | 0.00 | 0.00 | 89 | 1010.1 |
| 20260505065641 | 53 | 59 | 1.7 | 2.6 | 0.00 | 0.00 | 0.00 | 88 | 1010.2 |
| 20260505065402 | 53 | 59 | 1.7 | 2.6 | 0.00 | 0.00 | 0.00 | 88 | 1010.2 |
| 20260505064638 | 54 | 59 | 2.6 | 4.3 | 0.00 | 0.00 | 0.00 | 88 | 1010.1 |
| 20260505064354 | 54 | 59 | 2.6 | 4.3 | 0.00 | 0.00 | 0.00 | 87 | 1010.2 |
| 20260505063634 | 54 | 70 | 2.6 | 4.3 | 0.00 | 0.00 | 0.00 | 87 | 1010.2 |
| 20260505063132 | 54 | 42 | 3.5 | 5.2 | 0.00 | 0.00 | 0.00 | 87 | 1010.2 |
| 20260505062632 | 54 | 41 | 2.6 | 5.2 | 0.00 | 0.00 | 0.00 | 87 | 1010.3 |
| 20260505062133 | 54 | 42 | 1.7 | 4.3 | 0.00 | 0.00 | 0.00 | 87 | 1010.3 |
| 20260505061632 | 54 | 59 | 1.7 | 2.6 | 0.00 | 0.00 | 0.00 | 87 | 1010.3 |
| 20260505061132 | 54 | 60 | 0.9 | 2.6 | 0.00 | 0.00 | 0.00 | 87 | 1010.4 |
| 20260505060631 | 54 | 60 | 0.9 | 2.6 | 0.00 | 0.00 | 0.00 | 87 | 1010.4 |
| 20260505060132 | 54 | 60 | 0.9 | 2.6 | 0.00 | 0.00 | 0.00 | 87 | 1010.3 |
| 20260505055631 | 54 | 60 | 0.9 | 2.6 | 0.00 | 0.00 | 0.00 | 87 | 1010.3 |
| 20260505055134 | 54 | 60 | 0.9 | 2.6 | 0.00 | 0.00 | 0.00 | 87 | 1010.3 |
| 20260505054632 | 54 | 60 | 0.9 | 2.6 | 0.00 | 0.00 | 0.00 | 86 | 1010.4 |
| 20260505054132 | 54 | 81 | 0.9 | 2.6 | 0.00 | 0.00 | 0.00 | 86 | 1010.5 |
| 20260505053633 | 54 | 81 | 1.7 | 2.6 | 0.00 | 0.00 | 0.00 | 86 | 1010.5 |
| 20260505053131 | 54 | 80 | 2.6 | 5.2 | 0.00 | 0.00 | 0.00 | 85 | 1010.6 |
| 20260505052632 | 54 | 64 | 2.6 | 5.2 | 0.00 | 0.00 | 0.00 | 85 | 1010.6 |
| 20260505052133 | 54 | 61 | 3.5 | 6.1 | 0.00 | 0.00 | 0.00 | 85 | 1010.5 |
| 20260505051634 | 54 | 59 | 3.5 | 6.1 | 0.00 | 0.00 | 0.00 | 85 | 1010.6 |
| 20260505051132 | 54 | 57 | 2.6 | 6.1 | 0.00 | 0.00 | 0.00 | 85 | 1010.6 |
| 20260505050631 | 54 | 65 | 1.7 | 2.6 | 0.00 | 0.00 | 0.00 | 86 | 1010.6 |
| 20260505050131 | 53 | 64 | 1.7 | 2.6 | 0.00 | 0.00 | 0.00 | 86 | 1010.6 |
| 20260505041128 | 55 | 44 | 1.7 | 4.3 | 0.00 | 0.00 | 0.00 | 83 | 1010.9 |
| 20260505040854 | 55 | 65 | 0.9 | 3.5 | 0.00 | 0.00 | 0.00 | 82 | 1011.0 |
| 20260505040123 | 55 | 101 | 0.9 | 3.5 | 0.00 | 0.00 | 0.00 | 82 | 1011.0 |
| 20260505035622 | 55 | 101 | 1.7 | 3.5 | 0.00 | 0.00 | 0.00 | 81 | 1010.9 |
| 20260505035336 | 55 | 82 | 2.6 | 4.3 | 0.00 | 0.00 | 0.00 | 81 | 1010.9 |
| 20260505034615 | 55 | 63 | 3.5 | 7.8 | 0.00 | 0.00 | 0.00 | 81 | 1010.9 |
| 20260505034113 | 56 | 65 | 4.3 | 7.8 | 0.00 | 0.00 | 0.00 | 80 | 1010.9 |
| 20260505033612 | 56 | 55 | 5.2 | 7.8 | 0.00 | 0.00 | 0.00 | 80 | 1010.8 |
| 20260505033110 | 56 | 51 | 6.1 | 7.8 | 0.00 | 0.00 | 0.00 | 80 | 1010.8 |
| 20260505032606 | 56 | 66 | 4.3 | 7.0 | 0.00 | 0.00 | 0.00 | 79 | 1010.9 |
| 20260505032106 | 56 | 75 | 2.6 | 6.1 | 0.00 | 0.00 | 0.00 | 78 | 1010.8 |
| 20260505032058 | 56 | 80 | 1.7 | 5.2 | 0.00 | 0.00 | 0.00 | 78 | 1010.8 |
| 20260505031107 | 56 | 94 | 2.6 | 6.1 | 0.00 | 0.00 | 0.00 | 78 | 1010.7 |
| 20260505030606 | 56 | 93 | 3.5 | 6.1 | 0.00 | 0.00 | 0.00 | 78 | 1010.8 |
| 20260505030106 | 56 | 77 | 2.6 | 6.1 | 0.00 | 0.00 | 0.00 | 78 | 1010.8 |
| 20260505025601 | 56 | 86 | 1.7 | 8.7 | 0.00 | 0.00 | 0.00 | 78 | 1010.9 |
| 20260505025054 | 56 | 88 | 2.6 | 8.7 | 0.00 | 0.00 | 0.00 | 78 | 1010.9 |
| 20260505024548 | 56 | 89 | 3.5 | 8.7 | 0.00 | 0.00 | 0.00 | 77 | 1010.9 |
| 20260505024040 | 56 | 94 | 6.1 | 13.9 | 0.00 | 0.00 | 0.00 | 77 | 1010.9 |
| 20260505023535 | 56 | 113 | 7.8 | 13.9 | 0.00 | 0.00 | 0.00 | 76 | 1010.9 |
| 20260505023030 | 56 | 84 | 8.7 | 13.9 | 0.00 | 0.00 | 0.00 | 76 | 1010.9 |
| 20260505022523 | 57 | 65 | 9.6 | 13.9 | 0.00 | 0.00 | 0.00 | 75 | 1010.9 |
| 20260505022017 | 57 | 76 | 7.8 | 13.0 | 0.00 | 0.00 | 0.00 | 75 | 1011.0 |
| 20260505021511 | 56 | 73 | 7.0 | 13.9 | 0.00 | 0.00 | 0.00 | 76 | 1011.0 |
| 20260505021005 | 56 | 74 | 7.0 | 13.9 | 0.00 | 0.00 | 0.00 | 75 | 1011.0 |
| 20260505020459 | 56 | 49 | 6.1 | 12.2 | 0.00 | 0.00 | 0.00 | 76 | 1010.9 |
| 20260505015953 | 56 | 71 | 4.3 | 7.8 | 0.00 | 0.00 | 0.00 | 77 | 1010.8 |
| 20260505015448 | 56 | 61 | 3.5 | 7.0 | 0.00 | 0.00 | 0.00 | 77 | 1010.7 |
| 20260505014941 | 56 | 99 | 2.6 | 7.8 | 0.00 | 0.00 | 0.00 | 77 | 1010.8 |
| 20260505014655 | 56 | 81 | 3.5 | 9.6 | 0.00 | 0.00 | 0.00 | 76 | 1010.8 |
| 20260505014148 | 56 | 86 | 4.3 | 13.9 | 0.00 | 0.00 | 0.00 | 77 | 1010.8 |
| 20260505013648 | 56 | 99 | 6.1 | 16.5 | 0.00 | 0.00 | 0.00 | 76 | 1010.7 |
| 20260505012917 | 56 | 95 | 7.8 | 16.5 | 0.00 | 0.00 | 0.00 | 76 | 1010.7 |
| 20260505012411 | 56 | 96 | 7.0 | 16.5 | 0.00 | 0.00 | 0.00 | 77 | 1010.5 |
| 20260505011905 | 56 | 143 | 4.3 | 16.5 | 0.00 | 0.00 | 0.00 | 78 | 1010.6 |
| 20260505011359 | 55 | 265 | 4.3 | 13.9 | 0.00 | 0.00 | 0.00 | 79 | 1010.5 |
| 20260505010853 | 56 | 70 | 7.8 | 13.0 | 0.00 | 0.00 | 0.00 | 78 | 1010.5 |
| 20260505010346 | 56 | 71 | 11.3 | 18.2 | 0.00 | 0.00 | 0.00 | 77 | 1010.4 |
| 20260505010104 | 56 | 72 | 12.2 | 22.6 | 0.00 | 0.00 | 0.00 | 76 | 1010.4 |
| 20260505005335 | 56 | 80 | 10.4 | 22.6 | 0.00 | 0.00 | 0.00 | 76 | 1010.4 |
| 20260505005053 | 56 | 136 | 7.0 | 18.2 | 0.00 | 0.00 | 0.00 | 78 | 1010.2 |
| 20260505004328 | 55 | 43 | 4.3 | 9.6 | 0.00 | 0.00 | 0.00 | 79 | 1010.3 |
| 20260505003813 | 54 | 78 | 2.6 | 8.7 | 0.00 | 0.00 | 0.00 | 81 | 1010.2 |
| 20260505003307 | 54 | 62 | 0.9 | 5.2 | 0.00 | 0.00 | 0.00 | 82 | 1010.1 |
| 20260505002802 | 54 | 120 | 0.9 | 6.1 | 0.00 | 0.00 | 0.00 | 82 | 1010.0 |
| 20260505002303 | 54 | 125 | 1.7 | 6.1 | 0.00 | 0.00 | 0.00 | 83 | 1009.8 |
| 20260505001803 | 54 | 162 | 1.7 | 4.3 | 0.00 | 0.00 | 0.00 | 82 | 1009.7 |
| 20260505001527 | 54 | 160 | 1.7 | 4.3 | 0.00 | 0.00 | 0.00 | 83 | 1009.5 |
| 20260505000801 | 54 | 163 | 0.9 | 3.5 | 0.00 | 0.00 | 0.00 | 82 | 1009.4 |
| 20260505000300 | 54 | 101 | 0.9 | 4.3 | 0.00 | 0.00 | 0.00 | 82 | 1009.3 |
| 20260504235802 | 54 | 78 | 4.3 | 13.9 | 0.00 | 0.00 | 0.00 | 82 | 1009.2 |
| 20260504235301 | 55 | 77 | 7.8 | 13.9 | 0.00 | 0.00 | 0.00 | 82 | 1009.1 |
| 20260504234800 | 55 | 69 | 10.4 | 14.8 | 0.00 | 0.00 | 0.00 | 81 | 1009.1 |
| 20260504234300 | 55 | 57 | 11.3 | 14.8 | 0.00 | 0.00 | 0.00 | 81 | 1009.1 |
| 20260504233801 | 55 | 69 | 12.2 | 14.8 | 0.00 | 0.00 | 0.00 | 80 | 1009.1 |
| 20260504233301 | 55 | 50 | 13.0 | 15.6 | 0.00 | 0.00 | 0.00 | 80 | 1008.9 |
| 20260504232801 | 55 | 53 | 12.2 | 15.6 | 0.00 | 0.00 | 0.00 | 80 | 1008.8 |
| 20260504232301 | 55 | 55 | 13.0 | 16.5 | 0.00 | 0.00 | 0.00 | 79 | 1008.8 |
| 20260504231800 | 56 | 52 | 13.9 | 16.5 | 0.00 | 0.00 | 0.00 | 78 | 1008.7 |
| 20260504231300 | 56 | 61 | 13.9 | 16.5 | 0.00 | 0.00 | 0.00 | 77 | 1008.6 |
| 20260504230800 | 56 | 55 | 13.9 | 16.5 | 0.00 | 0.00 | 0.00 | 77 | 1008.6 |
| 20260504230259 | 56 | 53 | 13.9 | 16.5 | 0.00 | 0.00 | 0.00 | 77 | 1008.6 |
| 20260504225756 | 56 | 49 | 13.9 | 17.4 | 0.00 | 0.00 | 0.00 | 77 | 1008.5 |
| 20260504225520 | 56 | 57 | 14.8 | 18.2 | 0.00 | 0.00 | 0.00 | 77 | 1008.6 |
| 20260504224757 | 56 | 44 | 15.6 | 18.2 | 0.00 | 0.00 | 0.00 | 76 | 1008.6 |
| 20260504224257 | 56 | 49 | 16.5 | 20.0 | 0.00 | 0.00 | 0.00 | 75 | 1008.6 |
| 20260504223757 | 57 | 57 | 16.5 | 20.0 | 0.00 | 0.00 | 0.00 | 74 | 1008.5 |
| 20260504223257 | 56 | 52 | 15.6 | 18.2 | 0.00 | 0.00 | 0.00 | 75 | 1008.6 |
| 20260504222757 | 56 | 43 | 13.0 | 17.4 | 0.00 | 0.00 | 0.00 | 76 | 1008.6 |
| 20260504222256 | 56 | 59 | 12.2 | 14.8 | 0.00 | 0.00 | 0.00 | 77 | 1008.8 |
| 20260504221756 | 56 | 49 | 13.0 | 16.5 | 0.00 | 0.00 | 0.00 | 76 | 1008.8 |
| 20260504221257 | 56 | 46 | 13.9 | 16.5 | 0.00 | 0.00 | 0.00 | 76 | 1008.8 |
| 20260504220756 | 56 | 53 | 13.9 | 16.5 | 0.00 | 0.00 | 0.00 | 76 | 1008.8 |
| 20260504220255 | 56 | 55 | 14.8 | 17.4 | 0.00 | 0.00 | 0.00 | 76 | 1008.8 |
| 20260504215757 | 57 | 51 | 15.6 | 19.1 | 0.00 | 0.00 | 0.00 | 75 | 1008.9 |
| 20260504215516 | 57 | 51 | 16.5 | 19.1 | 0.00 | 0.00 | 0.00 | 74 | 1008.8 |
| 20260504214751 | 57 | 41 | 16.5 | 20.9 | 0.00 | 0.00 | 0.00 | 73 | 1008.8 |
| 20260504214252 | 57 | 65 | 16.5 | 20.9 | 0.00 | 0.00 | 0.00 | 74 | 1008.8 |
| 20260504213750 | 57 | 44 | 17.4 | 20.9 | 0.00 | 0.00 | 0.00 | 74 | 1008.8 |
| 20260504213250 | 57 | 58 | 15.6 | 20.9 | 0.00 | 0.00 | 0.00 | 74 | 1008.8 |
| 20260504212751 | 57 | 55 | 14.8 | 18.2 | 0.00 | 0.00 | 0.00 | 74 | 1008.8 |
| 20260504212517 | 57 | 38 | 13.9 | 18.2 | 0.00 | 0.00 | 0.00 | 75 | 1008.8 |
| 20260504211750 | 57 | 52 | 13.9 | 17.4 | 0.00 | 0.00 | 0.00 | 74 | 1008.9 |
| 20260504211249 | 57 | 53 | 14.8 | 17.4 | 0.00 | 0.00 | 0.00 | 74 | 1008.9 |
| 20260504210751 | 58 | 49 | 14.8 | 17.4 | 0.00 | 0.00 | 0.00 | 73 | 1008.9 |
| 20260504210246 | 58 | 57 | 15.6 | 18.2 | 0.00 | 0.00 | 0.00 | 72 | 1008.9 |
| 20260504205745 | 58 | 57 | 15.6 | 19.1 | 0.00 | 0.00 | 0.00 | 72 | 1008.8 |
| 20260504205248 | 58 | 51 | 15.6 | 20.0 | 0.00 | 0.00 | 0.00 | 71 | 1008.9 |
| 20260504204746 | 58 | 56 | 12.2 | 20.0 | 0.00 | 0.00 | 0.00 | 71 | 1008.9 |
| 20260504204246 | 56 | 52 | 7.8 | 15.6 | 0.00 | 0.00 | 0.00 | 76 | 1009.0 |
| 20260504203745 | 56 | 52 | 8.7 | 12.2 | 0.00 | 0.00 | 0.00 | 77 | 1008.9 |
| 20260504203245 | 56 | 57 | 10.4 | 14.8 | 0.00 | 0.00 | 0.00 | 76 | 1009.0 |
| 20260504202746 | 56 | 49 | 11.3 | 14.8 | 0.00 | 0.00 | 0.00 | 75 | 1009.0 |
| 20260504202247 | 57 | 59 | 12.2 | 14.8 | 0.00 | 0.00 | 0.00 | 75 | 1009.0 |
| 20260504202008 | 57 | 52 | 12.2 | 14.8 | 0.00 | 0.00 | 0.00 | 74 | 1009.0 |
| 20260504201242 | 57 | 46 | 12.2 | 14.8 | 0.00 | 0.00 | 0.00 | 75 | 1009.0 |
| 20260504200742 | 57 | 67 | 12.2 | 14.8 | 0.00 | 0.00 | 0.00 | 74 | 1009.0 |
| 20260504200243 | 57 | 62 | 13.9 | 17.4 | 0.00 | 0.00 | 0.00 | 74 | 1009.0 |
| 20260504195739 | 57 | 74 | 15.6 | 17.4 | 0.00 | 0.00 | 0.00 | 72 | 1009.1 |
| 20260504195238 | 57 | 64 | 14.8 | 17.4 | 0.00 | 0.00 | 0.00 | 72 | 1009.1 |
| 20260504194738 | 57 | 70 | 14.8 | 18.2 | 0.00 | 0.00 | 0.00 | 72 | 1009.1 |
| 20260504194237 | 57 | 63 | 13.9 | 18.2 | 0.00 | 0.00 | 0.00 | 71 | 1009.2 |
| 20260504193736 | 57 | 63 | 13.0 | 16.5 | 0.00 | 0.00 | 0.00 | 73 | 1009.1 |
| 20260504193234 | 57 | 73 | 14.8 | 16.5 | 0.00 | 0.00 | 0.00 | 72 | 1009.2 |
| 20260504192736 | 57 | 57 | 14.8 | 16.5 | 0.00 | 0.00 | 0.00 | 73 | 1009.2 |
| 20260504192235 | 56 | 63 | 14.8 | 16.5 | 0.00 | 0.00 | 0.00 | 74 | 1009.2 |
| 20260504191950 | 56 | 65 | 13.9 | 16.5 | 0.00 | 0.00 | 0.00 | 74 | 1009.3 |
| 20260504191234 | 56 | 64 | 13.0 | 15.6 | 0.00 | 0.00 | 0.00 | 74 | 1009.3 |
| 20260504190733 | 56 | 62 | 13.0 | 15.6 | 0.00 | 0.00 | 0.00 | 74 | 1009.4 |
| 20260504190543 | 56 | 62 | 12.2 | 14.8 | 0.00 | 0.00 | 0.00 | 75 | 1009.4 |
| 20260504185226 | 56 | 64 | 10.4 | 14.8 | 0.00 | 0.00 | 0.00 | 76 | 1009.4 |
| 20260504184720 | 56 | 63 | 10.4 | 13.0 | 0.00 | 0.00 | 0.00 | 75 | 1009.5 |
| 20260504184214 | 56 | 53 | 11.3 | 13.9 | 0.00 | 0.00 | 0.00 | 75 | 1009.6 |
| 20260504183708 | 56 | 61 | 12.2 | 13.9 | 0.00 | 0.00 | 0.00 | 74 | 1009.8 |
| 20260504183202 | 56 | 74 | 12.2 | 13.9 | 0.00 | 0.00 | 0.00 | 73 | 1009.8 |
| 20260504182656 | 56 | 68 | 10.4 | 13.0 | 0.00 | 0.00 | 0.00 | 74 | 1009.9 |
| 20260504182150 | 55 | 63 | 9.6 | 12.2 | 0.00 | 0.00 | 0.00 | 77 | 1010.0 |
| 20260504181645 | 55 | 71 | 9.6 | 12.2 | 0.00 | 0.00 | 0.00 | 76 | 1009.9 |
| 20260504181140 | 55 | 61 | 9.6 | 11.3 | 0.00 | 0.00 | 0.00 | 77 | 1010.0 |
| 20260504180633 | 55 | 63 | 9.6 | 13.0 | 0.00 | 0.00 | 0.00 | 76 | 1010.1 |
| 20260504180347 | 56 | 82 | 9.6 | 13.0 | 0.00 | 0.00 | 0.00 | 74 | 1010.1 |
| 20260504175621 | 56 | 75 | 9.6 | 13.9 | 0.00 | 0.00 | 0.00 | 72 | 1010.1 |
| 20260504175115 | 57 | 58 | 8.7 | 13.9 | 0.00 | 0.00 | 0.00 | 71 | 1010.2 |
| 20260504174609 | 57 | 77 | 9.6 | 13.9 | 0.00 | 0.00 | 0.00 | 69 | 1010.3 |
| 20260504174336 | 57 | 69 | 8.7 | 13.9 | 0.00 | 0.00 | 0.00 | 71 | 1010.3 |
| 20260504173556 | 57 | 81 | 7.8 | 13.0 | 0.00 | 0.00 | 0.00 | 71 | 1010.4 |
| 20260504173052 | 57 | 74 | 8.7 | 13.0 | 0.00 | 0.00 | 0.00 | 71 | 1010.4 |
| 20260504172543 | 57 | 103 | 9.6 | 13.9 | 0.00 | 0.00 | 0.00 | 71 | 1010.4 |
| 20260504172038 | 57 | 98 | 10.4 | 14.8 | 0.00 | 0.00 | 0.00 | 68 | 1010.4 |
| 20260504171532 | 57 | 88 | 10.4 | 15.6 | 0.00 | 0.00 | 0.00 | 68 | 1010.5 |